sat.trackr.live / text

‹ back to catalog

STARLINK-6181

NORAD 56888 · 2023-083N

PAYLOAD ACTIVE UNKNOWN

§ Identity

Operator
Country
US
Launch date
2023-06-12
Launch site
AFETR
Launch vehicle
Mass (kg)
RCS (m²)

Purposes: comms

External: N2YO · Heavens-Above · Gunter

§ Orbital elements

Epoch: 2026-05-25T00:43:21.438336Z

Period
94.27 min
Inclination
43.0060°
Eccentricity
0.0001229
Mean motion
15.27582021 rev/d
Perigee alt
482.2 km
Apogee alt
483.9 km
Semi-major
6,861.2 km
B*
3.5149e-5
RAAN
17.6513°
Arg perigee
272.9443°
Mean anomaly
87.1268°
Rev number
16,326

§ Raw data

STARLINK-61811 56888U 23083N   26145.03010924  .00000705  00000+0  35149-4 0  99952 56888  43.0060  17.6513 0001229 272.9443  87.1268 15.27582021163261

JSON: /api/v1/satellites/56888 · /tle

For live sub-satellite position, see the globe view (requires WebGL).

§ Visibility from observer

Set your observer location to see the next 7 days of passes ≥ 10°. The values pass through the URL so the page stays shareable.

No JS? Fill the form by hand. The geolocation button needs JavaScript.